Other Surface Observations
Issued by NWS

Home | Current Version | Previous Version | Text Only | Print | Product List | Glossary On
Versions: 1 2 3 4 5 6 7 8 9 10 11 12 13 14 15 16 17 18 19 20 21 22 23 24 25 26 27 28 29 30 31 32 33 34 35 36 37 38 39 40 41 42 43 44 45 46 47 48 49 50
000
SXUS52 KTAE 060210
OSOTAE
OSOTAE
North Florida/South Alabama/Southwest Georgia Weather Roundup
National Weather Service Tallahassee Florida
1000 PM EDT SUN JUL 05 2015

Note: "fair" indicates few or no clouds below 12,000 feet with no
significant weather and/or obstructions to visibility.

!FLZ017-115-028-034-025-060300
...North Florida...

CITY           SKY/WX    TMP DP  RH WIND       PRES   REMARKS
TALLAHASSEE    PTCLDY    74  71  91 SW7       30.15R
APALACHICOLA   CLEAR     78  72  81 CALM      30.14R
PERRY          MOCLDY    73  70  89 CALM      30.15S
CROSS CITY       N/A     73  70  90 E3        30.14F
JACKSONVILLE   CLOUDY    72  71  97 W7        30.11S
$$

!FLZ112-006-005-002-011-060300
...Florida Panhandle...

CITY           SKY/WX    TMP DP  RH WIND       PRES   REMARKS
MARIANNA       PTCLDY    74  74 100 S6        30.13R
BONIFAY        FAIR      74  73  97 CALM      30.15R
PANAMA CITY NW FAIR      74  71  91 S3        30.12S
TYNDALL AFB    PTCLDY    74  71  91 SW5       30.14R
TYND DRONE APT FAIR      73  71  95 S3        30.14R
DE FUNIAK SPR  FAIR      72  70  94 W3        30.15R
EGLIN AFB      CLOUDY    77  71  83 W2        30.14R
DESTIN         MOCLDY    79  72  79 CALM      30.14R
HURLBURT       CLOUDY    77  67  69 NW2       30.12R
CRESTVIEW      MOCLDY    75  69  81 W5        30.16R
PENSACOLA      CLOUDY    74  65  73 NW8       30.13R
$$

!ALZ063-066-060300
...South Alabama...

CITY           SKY/WX    TMP DP  RH WIND       PRES   REMARKS
DOTHAN         PTCLDY    74  70  87 SW5         N/A
OZARK CAIRNS   MOCLDY    72  70  93 W5        30.15R
FT RUCKER HELI PTCLDY    73  68  84 W6        30.14R
RUCKER HELI 3  FAIR      72  68  88 W5        30.16R
RUCKER HELI 2  FAIR      72  72 100 SW3       30.12R
FLORALA APT    MOCLDY    72  69  90 CALM      30.17R
ANDALUSIA      MOCLDY    75  67  76 NW7       30.16R
TROY           PTCLDY    73  68  84 W3        30.15R
EUFALA         FAIR      76  72  87 SW3       30.12R
MOBILE         CLOUDY    69  68  96 W6        30.14F
$$

!GAZ120>161-060300
...Southwest and South Central Georgia...

CITY           SKY/WX    TMP DP  RH WIND       PRES   REMARKS
THOMASVILLE    FAIR      72  70  94 CALM      30.14S
BAINBRIDGE     PTCLDY    73  72  94 SE3       30.14S
MOODY AFB      CLOUDY    73  71  92 SW6       30.13R
VALDOSTA       CLOUDY    71  70  96 CALM      30.15R
MOULTRIE       PTCLDY    72  70  94 CALM      30.15R
BLAKELY        MOCLDY    73  73 100 S3        30.13R
ALBANY         CLEAR     74  71  91 S3        30.14S
TIFTON         FAIR      74  70  89 SW5       30.13S
FITZGERALD     FAIR      76  74  96 W5        30.15R
CORDELE        FAIR      78  74  86 SW6       30.13R
AMERICUS       FAIR      73  72  94 S5        30.13F
HOMERVILLE     FAIR      73  73 100 CALM      30.14R
$$

!GMZ750-755-770-775-060300
...Coastal and Buoy Obs...

STATION/POSITION TIME  TEMP    WIND        PRES    VSBY  WAVE
                       AIR SEA DIR/SP/G                  HT/PER
                 (UTC) (F)     (DEG/KT/KT) (MB)    (MI)  (FT/S)
KEATON BEACH     0200   76      90/  6/  7 1020.7S
CEDAR KEY        0200   78     100/  8/ 10 1020.8F
C TOWER          0200   78      40/  5/  5 1020.6R
APALACHICOLA BUO 0150   83 85   60/ 10/ 12 1020.8R         3/ 5
PANAMA CITY BUOY 0150   82 85   10/  6/  8 1021.0R         1/ 9
MOBILE BUOY      0150   81 85   30/ 12/ 14 1021.0F         3/ 4
ORANGE BCH AL BU 0150   81 83  270/ 12/ 14 1019.8R         1/ 3
$$



USA.gov is the U.S. government's official web portal to all federal, state and local government web resources and services.